When you browse on this site, cookies collect data to enhance your experience and personalize the content and advertising you see.
Visit our Privacy Policy to learn more. By continuing to use the site, you agree to this use of cookies and data.

Hourly Weather San Antonio del Tequendama

Today, 8 August, Saturday

Time Temperature Precipitation Wind Pressure Humidity
00:00 +21°C° 0 mm 1 mps 645 mmHg 74%
01:00 +21°C° 0 mm 1 mps 644 mmHg 74%
02:00 +21°C° 0 mm 1 mps 644 mmHg 75%
03:00 +20°C° 0 mm 1 mps 644 mmHg 76%
04:00 +20°C° 0 mm 1 mps 644 mmHg 78%
05:00 +21°C° 0.1 mm 1 mps 644 mmHg 78%
06:00 +21°C° 0.1 mm 1 mps 644 mmHg 78%
07:00 +21°C° 0.1 mm 1 mps 645 mmHg 78%
08:00 +22°C° 0 mm 1 mps 645 mmHg 75%
09:00 +24°C° 0 mm 1 mps 646 mmHg 71%
10:00 +25°C° 0 mm 2 mps 646 mmHg 67%
11:00 +25°C° 0.2 mm 2 mps 646 mmHg 66%
12:00 +26°C° 0.2 mm 2 mps 645 mmHg 65%
13:00 +27°C° 0.2 mm 2 mps 645 mmHg 63%
14:00 +26°C° 0.3 mm 2 mps 644 mmHg 65%
15:00 +26°C° 0.3 mm 1 mps 644 mmHg 66%
16:00 +26°C° 0.3 mm 1 mps 643 mmHg 67%
17:00 +24°C° 0.1 mm 1 mps 643 mmHg 72%
18:00 +23°C° 0.1 mm 1 mps 643 mmHg 77%
19:00 +22°C° 0.1 mm 1 mps 643 mmHg 82%
20:00 +21°C° 0 mm 1 mps 643 mmHg 82%
21:00 +20°C° 0 mm 1 mps 644 mmHg 83%
22:00 +20°C° 0 mm 1 mps 644 mmHg 83%
23:00 +20°C° 0 mm 1 mps 644 mmHg 83%

Tomorrow, 9 August, Sunday

Time Temperature Precipitation Wind Pressure Humidity
00:00 +18°C° 0 mm 2 mps 644 mmHg 84%
01:00 +18°C° 0 mm 2 mps 643 mmHg 84%
02:00 +18°C° 0 mm 2 mps 643 mmHg 84%
03:00 +18°C° 0 mm 2 mps 643 mmHg 83%
04:00 +18°C° 0 mm 2 mps 643 mmHg 83%
05:00 +18°C° 0 mm 2 mps 643 mmHg 81%
06:00 +20°C° 0 mm 1 mps 644 mmHg 79%
07:00 +21°C° 0 mm 1 mps 644 mmHg 77%
08:00 +22°C° 0 mm 1 mps 645 mmHg 72%
09:00 +24°C° 0 mm 1 mps 645 mmHg 67%
10:00 +25°C° 0 mm 1 mps 646 mmHg 62%
11:00 +26°C° 0.1 mm 1 mps 646 mmHg 61%
12:00 +27°C° 0.1 mm 2 mps 645 mmHg 59%
13:00 +27°C° 0.1 mm 2 mps 645 mmHg 58%
14:00 +27°C° 0.4 mm 1 mps 644 mmHg 58%
15:00 +27°C° 0.4 mm 1 mps 643 mmHg 59%
16:00 +27°C° 0.4 mm 1 mps 643 mmHg 60%
17:00 +25°C° 0.3 mm 1 mps 643 mmHg 66%
18:00 +24°C° 0.3 mm 1 mps 643 mmHg 72%
19:00 +22°C° 0.3 mm 1 mps 643 mmHg 79%
20:00 +22°C° 0 mm 1 mps 643 mmHg 79%
21:00 +21°C° 0 mm 1 mps 644 mmHg 80%
22:00 +20°C° 0 mm 2 mps 644 mmHg 81%
23:00 +19°C° 0 mm 2 mps 644 mmHg 81%

Day after tomorrow, 10 August, Monday

Time Temperature Precipitation Wind Pressure Humidity
00:00 +19°C° 0 mm 2 mps 643 mmHg 81%
01:00 +18°C° 0 mm 2 mps 643 mmHg 82%
02:00 +18°C° 0 mm 2 mps 642 mmHg 81%
03:00 +18°C° 0 mm 2 mps 642 mmHg 81%
04:00 +18°C° 0 mm 2 mps 642 mmHg 80%
05:00 +19°C° 0 mm 2 mps 642 mmHg 79%
06:00 +19°C° 0 mm 2 mps 643 mmHg 78%
07:00 +21°C° 0 mm 1 mps 643 mmHg 77%
08:00 +22°C° 0 mm 1 mps 644 mmHg 71%
09:00 +24°C° 0 mm 1 mps 644 mmHg 64%
10:00 +26°C° 0 mm 2 mps 645 mmHg 58%
11:00 +27°C° 0.1 mm 2 mps 645 mmHg 57%
12:00 +27°C° 0.1 mm 2 mps 644 mmHg 57%
13:00 +28°C° 0.1 mm 2 mps 643 mmHg 56%
14:00 +27°C° 0.2 mm 2 mps 643 mmHg 58%
15:00 +27°C° 0.2 mm 1 mps 642 mmHg 60%
16:00 +27°C° 0.2 mm 1 mps 641 mmHg 61%
17:00 +25°C° 0.1 mm 1 mps 641 mmHg 67%
18:00 +24°C° 0.1 mm 1 mps 641 mmHg 72%
19:00 +22°C° 0.1 mm 1 mps 641 mmHg 78%
20:00 +22°C° 0 mm 1 mps 642 mmHg 76%
21:00 +22°C° 0 mm 1 mps 642 mmHg 74%
22:00 +20°C° 0 mm 2 mps 643 mmHg 72%
23:00 +21°C° 0 mm 1 mps 643 mmHg 73%

11 August, Tuesday

Time Temperature Precipitation Wind Pressure Humidity
00:00 +21°C° 0 mm 1 mps 642 mmHg 74%
01:00 +20°C° 0 mm 1 mps 642 mmHg 74%
02:00 +20°C° 0 mm 1 mps 642 mmHg 76%
03:00 +20°C° 0 mm 1 mps 641 mmHg 77%
04:00 +19°C° 0 mm 1 mps 641 mmHg 78%
05:00 +20°C° 0 mm 1 mps 641 mmHg 77%
06:00 +20°C° 0 mm 1 mps 642 mmHg 76%
07:00 +21°C° 0 mm 1 mps 642 mmHg 75%
08:00 +23°C° 0 mm 1 mps 643 mmHg 69%
09:00 +25°C° 0 mm 1 mps 644 mmHg 63%
10:00 +27°C° 0 mm 1 mps 644 mmHg 57%
11:00 +27°C° 0.1 mm 1 mps 644 mmHg 56%
12:00 +28°C° 0.1 mm 2 mps 643 mmHg 54%
13:00 +29°C° 0.1 mm 2 mps 643 mmHg 53%
14:00 +28°C° 0.1 mm 1 mps 642 mmHg 54%
15:00 +28°C° 0.1 mm 1 mps 641 mmHg 56%
16:00 +28°C° 0.1 mm 1 mps 640 mmHg 58%
17:00 +26°C° 0.1 mm 1 mps 641 mmHg 64%
18:00 +24°C° 0.1 mm 1 mps 641 mmHg 70%
19:00 +23°C° 0.1 mm 1 mps 641 mmHg 75%
20:00 +22°C° 0.1 mm 1 mps 642 mmHg 74%
21:00 +22°C° 0.1 mm 1 mps 642 mmHg 72%
22:00 +21°C° 0.1 mm 2 mps 643 mmHg 70%
23:00 +22°C° 0 mm 1 mps 642 mmHg 71%

12 August, Wednesday

Time Temperature Precipitation Wind Pressure Humidity
00:00 +21°C° 0 mm 1 mps 642 mmHg 71%
01:00 +21°C° 0 mm 1 mps 642 mmHg 72%
02:00 +21°C° 0.1 mm 1 mps 642 mmHg 73%
03:00 +20°C° 0.1 mm 1 mps 641 mmHg 75%
04:00 +20°C° 0.1 mm 1 mps 641 mmHg 76%
05:00 +21°C° 0 mm 1 mps 642 mmHg 76%
06:00 +21°C° 0 mm 1 mps 642 mmHg 75%
07:00 +21°C° 0 mm 1 mps 642 mmHg 74%
08:00 +23°C° 0 mm 1 mps 643 mmHg 70%
09:00 +25°C° 0 mm 1 mps 644 mmHg 65%
10:00 +27°C° 0 mm 2 mps 644 mmHg 60%
11:00 +27°C° 0.3 mm 2 mps 643 mmHg 60%
12:00 +27°C° 0.3 mm 2 mps 642 mmHg 60%
13:00 +28°C° 0.3 mm 2 mps 642 mmHg 60%
14:00 +28°C° 0.5 mm 2 mps 641 mmHg 61%
15:00 +28°C° 0.5 mm 1 mps 641 mmHg 62%
16:00 +27°C° 0.5 mm 1 mps 640 mmHg 63%
17:00 +26°C° 0.8 mm 1 mps 640 mmHg 68%
18:00 +24°C° 0.8 mm 1 mps 640 mmHg 73%
19:00 +23°C° 0.8 mm 1 mps 641 mmHg 78%
20:00 +22°C° 0.3 mm 1 mps 641 mmHg 78%
21:00 +22°C° 0.3 mm 1 mps 642 mmHg 78%
22:00 +22°C° 0.3 mm 1 mps 642 mmHg 79%
23:00 +22°C° 0.3 mm 1 mps 642 mmHg 80%

13 August, Thursday

Time Temperature Precipitation Wind Pressure Humidity
00:00 +22°C° 0.3 mm 1 mps 641 mmHg 82%
01:00 +20°C° 0.3 mm 0 mps 641 mmHg 83%
02:00 +19°C° 0.4 mm 0 mps 641 mmHg 85%
03:00 +19°C° 0.4 mm 0 mps 641 mmHg 87%
04:00 +18°C° 0.4 mm 0 mps 640 mmHg 89%
05:00 +19°C° 0.1 mm 0 mps 641 mmHg 89%
06:00 +19°C° 0.1 mm 0 mps 641 mmHg 89%
07:00 +19°C° 0.1 mm 0 mps 642 mmHg 89%
08:00 +20°C° 0.2 mm 0 mps 642 mmHg 86%
09:00 +23°C° 0.2 mm 1 mps 643 mmHg 83%
10:00 +24°C° 0.2 mm 1 mps 643 mmHg 81%
11:00 +25°C° 0.4 mm 1 mps 642 mmHg 77%
12:00 +26°C° 0.4 mm 1 mps 642 mmHg 73%
13:00 +27°C° 0.4 mm 1 mps 642 mmHg 70%
14:00 +26°C° 0.8 mm 1 mps 641 mmHg 70%
15:00 +26°C° 0.8 mm 1 mps 641 mmHg 70%
16:00 +26°C° 0.8 mm 1 mps 640 mmHg 70%
17:00 +25°C° 1.1 mm 1 mps 640 mmHg 74%
18:00 +24°C° 1.1 mm 1 mps 641 mmHg 78%
19:00 +23°C° 1.1 mm 1 mps 641 mmHg 83%
20:00 +22°C° 0.8 mm 1 mps 641 mmHg 84%
21:00 +22°C° 0.8 mm 1 mps 641 mmHg 85%
22:00 +22°C° 0.8 mm 1 mps 642 mmHg 86%
23:00 +22°C° 0.9 mm 1 mps 641 mmHg 87%
Show more